#timestamp,LO_Frequency,Hit,StdDev 
1512007215.9,286047018.3,P
1512007235.7,286047013.1,N
1512007255.6,286047013.2,N
1512007275.4,286047018.4,N
1512007295.2,286047017.5,N
1512007315.1,286047023.3,N
1512007316.0,286047023.3,N
1512007335.8,286047018.9,N
1512007355.6,286047019.6,N
1512007375.4,286047015.7,N
1512007395.3,286047017.0,N
1512007415.1,286047014.7,N
1512007435.8,286047013.3,N
1512007455.7,286047011.5,N
1512007475.5,286047008.8,N
1512007495.3,286047010.8,N
1512007515.2,286047006.3,N
1512007535.9,286047008.0,N
1512007555.7,286047008.5,N
1512007575.6,286047009.9,N
1512007595.4,286047011.5,N
1512007615.2,286047011.8,N
1512007635.1,286047013.5,N
1512007636.0,286047013.5,N
1512007655.8,286047009.5,N
1512007675.6,286047012.6,N
1512007695.4,286047016.8,N
1512007715.3,286047011.3,N
1512007735.1,286047013.2,N
1512007755.8,286047018.2,Y
1512007775.7,286047005.7,P
1512007795.5,286047007.5,N
1512007815.3,286047006.3,N
1512007835.2,286047005.5,N
1512007855.0,286047004.5,N
1512007855.9,286047004.5,N
1512007875.7,286047005.0,N
1512007895.6,286047008.4,Y
1512007915.4,286047000.0,P
1512007935.2,286046998.6,N
1512007955.1,286046997.7,N
1512007956.0,286046997.7,N
1512007975.8,286046998.1,N
1512007995.6,286047001.6,N
1512008015.5,286047001.5,N
1512008035.3,286047002.2,N
1512008055.1,286047000.1,N
1512008075.9,286046999.2,N
1512008095.7,286046997.8,N
1512008115.5,286046998.9,N
1512008135.3,286046996.6,N
1512008155.2,286046993.9,N
1512008175.0,286046995.9,N
1512008175.9,286046995.9,N
1512008195.7,286046995.7,N
1512008215.6,286046994.9,N
1512008235.4,286046993.5,N
1512008255.2,286046994.9,N
1512008275.1,286046998.6,N
1512008276.0,286046998.6,N
1512008295.8,286047003.0,N
1512008315.6,286047003.3,N
1512008335.5,286046999.9,N
1512008355.3,286046998.1,N
1512008375.1,286046997.8,N
1512008395.9,286047001.9,N
1512008415.7,286047002.3,N
1512008435.5,286046998.1,N
1512008455.4,286046994.1,N
1512008475.2,286046988.9,Y
1512008495.0,286046989.7,P
1512008495.9,286046989.7,N
1512008515.8,286046986.9,P
1512008535.6,286046990.3,N
1512008555.4,286046992.7,N
1512008575.2,286046993.5,N
1512008595.1,286046993.4,N
1512008596.0,286046993.4,N
1512008615.8,286047001.2,N
1512008635.6,286047000.5,N
1512008655.5,286047004.1,N
1512008675.3,286047008.0,N
1512008695.1,286047013.4,N
1512008715.9,286047018.4,N
1512008735.7,286047023.5,N
1512008755.5,286047024.5,N
1512008775.4,286047027.4,N
1512008795.2,286047030.0,N
1512008815.0,286047030.4,N
1512008815.9,286047030.4,N
1512008835.8,286047030.3,N
1512008855.6,286047032.6,N
1512008875.4,286047033.5,N
1512008895.2,286047037.9,N
1512008915.1,286047040.0,N
1512008916.0,286047040.0,N
1512008935.8,286047041.9,N
1512008955.6,286047043.7,N
1512008975.5,286047043.4,N
1512008995.3,286047046.3,N
1512009015.1,286047050.7,N
1512009035.9,286047052.0,N
1512009055.7,286047049.8,N
1512009075.5,286047054.0,N
1512009095.4,286047054.4,N
1512009115.2,286047059.8,Y
1512009135.0,286047034.7,P
1512009135.9,286047034.7,P
1512009155.8,286047032.4,P
1512009175.6,286047034.4,Y
1512009195.4,286047006.0,P
1512009215.3,286047001.8,N
1512009235.1,286047003.6,N
1512009255.8,286046998.1,N
1512009275.7,286047000.7,N
1512009295.5,286046995.2,N
1512009315.3,286046987.6,N
1512009335.2,286046985.8,N
1512009355.9,286046984.2,N
1512009375.7,286046982.9,N
1512009395.5,286046979.9,N
1512009415.4,286046978.1,N
1512009435.2,286046980.3,N
1512009455.0,286046977.5,N
1512009455.9,286046977.5,N
1512009475.8,286046976.3,N
1512009495.6,286046974.8,N
1512009515.4,286046972.7,N
1512009535.3,286046973.3,N
1512009555.1,286046969.9,N
1512009556.0,286046969.9,N
1512009575.8,286046964.7,N
1512009595.7,286046966.3,N
1512009615.5,286046972.0,N
1512009635.3,286046971.6,N
1512009655.2,286046966.8,N
1512009675.9,286046963.6,N
1512009695.7,286046964.1,N
1512009715.5,286046963.1,N
1512009735.4,286046960.5,N
1512009755.2,286046957.4,Y
1512009775.0,286046979.7,P
1512009776.0,286046979.7,P
1512009795.8,286046979.8,P
1512009815.6,286046984.8,Y
1512009835.5,286047000.1,P
1512009855.3,286046998.9,N
1512009875.1,286046999.4,N
1512009895.8,286046998.3,N
1512009915.7,286046997.1,N
1512009935.5,286046996.3,N
1512009955.3,286046995.4,N
1512009975.2,286046997.0,N
1512009995.9,286046994.9,N
1512010015.7,286046997.3,N
1512010035.6,286046993.5,N
1512010055.4,286046992.3,N
1512010075.2,286046990.7,N
1512010095.1,286046992.2,N
1512010096.0,286046992.2,N
1512010115.8,286046992.0,N
1512010135.6,286046992.0,N
1512010155.4,286046990.1,N
1512010175.3,286046992.7,N
1512010195.1,286046991.6,N
1512010215.8,286046991.5,N
1512010235.7,286046988.7,N
1512010255.5,286046989.5,N
1512010275.3,286046987.1,N
1512010295.2,286046993.2,N
1512010315.9,286046990.1,N
1512010335.7,286046994.0,N
1512010355.6,286046993.9,N
1512010375.4,286046992.3,N
1512010395.2,286046991.6,N
1512010415.1,286046987.0,Y
1512010416.0,286046987.0,P
1512010435.8,286046996.9,N
1512010455.6,286046999.7,N
1512010475.5,286047002.1,N
1512010495.3,286047001.1,N
1512010515.1,286046998.7,N
1512010535.9,286046998.9,N
1512010555.7,286047002.7,N
1512010575.5,286047002.2,N
1512010595.3,286047004.1,N
1512010615.2,286047003.4,N
1512010635.0,286047003.2,N
1512010635.9,286047003.2,N
1512010655.7,286047005.1,N
1512010675.6,286047008.4,N
1512010695.4,286047007.6,N
1512010715.2,286047002.1,N
1512010735.1,286046999.8,N
1512010736.0,286046999.8,N
1512010755.8,286047000.8,N
1512010775.6,286046995.5,N
1512010795.5,286046993.5,N
